Location: ??????
(55.6500°N, 37.8000°E)
Time: 05:33:11
(UTC+00:00)

Cosmos 1470 Rocket - Pass Details

Date: 14 April 2024
Orbit: 601 x 629 km, 82.5° (Epoch: 23 May)

Event Time Altitude Azimuth Distance (km) Brightness Sun altitude
Rises 01:15:09 0° 348° (NNW) 2,889 7.3 -9.8°
Reaches altitude 10° 01:17:23 10° 350° (N) 1,984 6.5 -9.5°
Maximum altitude 01:21:47 78° 78° (ENE) 637 3.7 -9.0°
Drops below altitude 10° 01:26:11 10° 165° (SSE) 1,986 6.0 -8.5°
Sets 01:28:25 0° 166° (SSE) 2,892 6.8 -8.2°
